Location: Poughquag
(41.6090°N, 73.6820°W)
Time: 09:01:24
(UTC-05:00)

SR - Pass Details

Date: 10 December 2023
Orbit: 574 x 868 km, 66.7° (Epoch: 25 February)

Event Time Altitude Azimuth Distance (km) Brightness Sun altitude
Rises 19:26:09 0° 324° (NW) 3,433 ? -33.1°
Reaches altitude 10° 19:28:46 10° 319° (NW) 2,470 ? -33.6°
Enters shadow 19:33:07 41° 280° (W) 1,167 ? -34.4°
Maximum altitude 19:34:13 47° 247° (WSW) 1,067 - -34.6°
Drops below altitude 10° 19:39:17 10° 175° (S) 2,299 - -35.5°
Sets 19:41:39 0° 169° (S) 3,174 - -36.0°
